STARLINK-33697, 63467

Orbit data source: Space-Track

STARLINK-33697, 63467 is a payload satellite owned by SpaceX/Seattle (US) in LEO that was launched on Sun, 06 Apr 2025 UTC via an FALCON 9 launch vehicle from the Air Force Eastern Test Range (AFETR). Payload-class satellites include a variety of spacecraft equipped with specific instruments for various scientific and technological missions. These include communications satellites like Starlink; space stations such as the ISS; scientific satellites like the Hubble; Earth observation satellites from companies like Planet Labs, Umbra, and HawkEye 360; GPS; miniature CubeSats for education and research; and military/defense satellites.

Loading next visibility...
Identifier
63467, 2025-070H
Orbit
LEO
Country
Flag of USUS
Related business
Manufacturer
SpaceX/Seattle
Mission
Operational Commercial Communications
Bus & Motor
STARLINK V2MO, Unknown motor
Mass
575 kg wet, ~530 kg dry
Launch date (UTC)
2025-04-06 (1 year ago)
Launch vehicle
FALCON 9
Launch site
Air Force Eastern Test Range (AFETR)
Object type
Payload
Rocket body
Debris
Shape & HBR
Box + 2 Pan, 17.7 m
Radar Cross Section
36.964 m², Large (>1 m²)

Expand to show TLE details & history
Last TLE update: 18 hours ago

TLE from 18 hours ago
0 STARLINK-33697
1 63467U 25070H   26169.36977573  .00008660  00000-0  32405-3 0  9998
2 63467  42.9995  51.2720 0000596 237.8071 122.2723 15.27557737 68373
Epoch: 2026-06-18T08:52Z
TLE epoch observation values (Epoch: 2026-06-18T08:52:28.623Z)
Latitude
0.00001°
Longitude
11.53866°
Altitude
483.109 km
Speed
7.626 km/s
True Right ascension
03h 25m 05s
True Declination
0° 00' 00"
Sunlit
Object was in daylight at epoch
Visualization orbit readout
Latitude
Unknown
Longitude
Unknown
Altitude
Unknown
Speed
Unknown
Apparent Right ascension
Unknown
Apparent Declination
Unknown
Sunlit
N/A
Visualization observer readout
Local Sidereal Time
14:04:28
Azimuth
Unknown
Elevation
Unknown
Doppler factor
Unknown
Orbital elements
Apogee altitude
485.47 km
Perigee altitude
484.652 km
Semi-major axis
6,863.198 km
Eccentricity
0.00006
Inclination
42.9995°
RAAN
51.272°
Arg. of periapsis
237.8071°
True anomaly
122.27807°
Mean anomaly
122.2723°
Eccentric anomaly
122.27519°
Mean motion
3.81727 °/min
Orbital period
94.31 mins
BSTAR
0.00032405
Loading maneuver chart data...
Computing Atmospheric mass density...
Loading historical data...
Loading historical data...
Loading historical data...
Loading historical data...
Loading historical data...
Loading historical data...
Loading historical data...

Documentation

Showing up to 5 results
|